User: anonymous   Login
Location: Unspecified
(0.0000°N, 0.0000°E)
Time: 19:24:11
(UTC+00:00)
Language:

SOHLA-1 (MAIDO-1) - Orbit

View from above orbital plane
View from above orbital plane
View from above satellite
View from above satellite

Ground track
Ground track

The orbit data is extracted from the following two-line orbital elements,

1 33496U 09002E   18351.49624628  .00000018  00000-0  11339-4 0  9995
2 33496  98.3738 160.3415 0007474  74.2412 285.9617 14.71791974531329
Epoch (UTC): 17 December 2018 11:54:35
Eccentricity: 0.0007474
inclination: 98.3738°
perigee height: 650 km
apogee height: 660 km
right ascension of ascending node: 160.3415°
argument of perigee: 74.2412°
revolutions per day: 14.71791974
mean anomaly at epoch: 285.9617°
orbit number at epoch: 53132

The dashed part of the orbit path shows where the satellite is in the earth's shadow,  

DLR